Tracking 31027 objects as of 19-Jul-2025
HD Live streaming from Space Station
objects crossing your sky now

COSMOS 1375 DEB

Track COSMOS 1375 DEB now!
10-day predictions


NORAD ID: 16202
Int'l Code: 1982-055D
Perigee: 848.1 km
Apogee: 964.0 km
Inclination: 65.8 °
Period: 103.0 minutes
Semi major axis: 7277 km
RCS: 0.038 m2 (small)
Launch date: June 6, 1982
Source: Commonwealth of Independent States (former USSR) (CIS)
Launch site: PLESETSK MISSILE AND SPACE COMPLEX (PKMTR)

Note: This is SATELLITE DEBRIS
Your satellite tracking list
STARLINK-30236
Track 1 satellite(s)




NASA's NSSDC Master Catalog

Two Line Element Set (TLE):
1 16202U 82055D   25199.39534109  .00000212  00000-0  20214-3 0  9998
2 16202  65.8284  81.6589 0079681 167.9331   6.9498 13.98525013191154
Source of the keplerian elements: AFSPC